Kars, Turkey

7:57 PM +03 on August 23, 2017 (GMT +0300)
Kars

Weather History for LTCF - September, 2012

Change the Weather History Date:

Monday, September 24, 2012

  Actual Average Record
Temperature  
Mean Temperature 51 °F -  
Max Temperature 69 °F 59 °F - ()
Min Temperature 33 °F 34 °F - ()
Degree Days  
Heating Degree Days 14    
Growing Degree Days 1 (Base 50)    
Moisture  
Dew Point 31 °F    
Average Humidity 46    
Maximum Humidity 81    
Minimum Humidity 11    
Precipitation  
Precipitation 0.00 in 0.05 in - ()
Sea Level Pressure  
Sea Level Pressure 30.19 in    
Wind  
Wind Speed 3 mph ()    
Max Wind Speed 10 mph    
Max Gust Speed -    
Visibility 6.0 miles    
Events      
T = Trace of Precipitation, MM = Missing Value Source: Averaged Metar Reports

Daily Weather History Graph

Daily Weather History Graph

Search for Another Location

Airport or City:

Trip Planner

Search our weather history database for the weather conditions in past years. The results will help you decide how hot, cold, wet, or windy it might be!

Date:

Astronomy

Sep. 24, 2012 Rise Set
Actual Time 5:57 AM EEST 6:01 PM EEST
Civil Twilight 5:29 AM EEST 6:28 PM EEST
Nautical Twilight 4:58 AM EEST 7:00 PM EEST
Astronomical Twilight 4:25 AM EEST 7:32 PM EEST
Moon 2:32 PM EEST (9/24) No Moon Set
Length of Visible Light 12h 58m
Length of Day
12h 03m
Waxing Gibbous, 67% of the Moon is Illuminated
Sep 24
Waxing Gibbous
Sep 30
Full
Oct 8
Last Quarter
Oct 15
New
Oct 22
First Quarter

Hourly Weather History & Observations

Time (EEST) Temp. Windchill Dew Point Humidity Pressure Visibility Wind Dir Wind Speed Gust Speed Precip Events Conditions
12:50 AM 44.6 °F 39.2 °F 33.8 °F 66% 30.18 in - East 10.4 mph - N/A   Clear
1:50 AM 41.0 °F - 33.8 °F 76% 30.18 in - Calm Calm - N/A   Clear
3:00 AM 40 °F - 33 °F 66%  in 6 mi ENE 2.3 mph - -  
3:50 AM 37.4 °F 34.9 °F 30.2 °F 75% 30.18 in - North 3.5 mph - N/A   Clear
4:50 AM 39.2 °F - 32.0 °F 75% 30.18 in - Calm Calm - N/A   Clear
5:50 AM 35.6 °F 32.8 °F 30.2 °F 81% 30.21 in - NW 3.5 mph - N/A   Clear
6:50 AM 39.2 °F - 32.0 °F 75% 30.21 in - Calm Calm - N/A   Clear
7:50 AM 44.6 °F 43.1 °F 33.8 °F 66% 30.24 in - WNW 3.5 mph - N/A   Clear
8:50 AM 51.8 °F - 35.6 °F 54% 30.24 in - SSW 3.5 mph - N/A   Clear
9:00 AM 53 °F - 36 °F 40%  in 6 mi SSW 3.5 mph - -  
9:50 AM 57.2 °F - 35.6 °F 44% 30.21 in - Variable 3.5 mph - N/A   Clear
10:50 AM 59.0 °F - 35.6 °F 42% 30.21 in - Variable 3.5 mph - N/A   Clear
11:50 AM 62.6 °F - 33.8 °F 34% 30.21 in - Variable 2.3 mph - N/A   Clear
12:50 PM 66.2 °F - 33.8 °F 30% 30.18 in - ESE 2.3 mph - N/A   Clear
1:50 PM 66.2 °F - 28.4 °F 24% 30.18 in - NW 2.3 mph - N/A   Clear
2:50 PM 68.0 °F - 24.8 °F 20% 30.15 in - Variable 3.5 mph - N/A   Clear
3:00 PM 67 °F - 25 °F 11%  in 6 mi ESE 3.5 mph - -  
3:50 PM 68.0 °F - 24.8 °F 20% 30.15 in - Variable 2.3 mph - N/A   Clear
4:50 PM 68.0 °F - 28.4 °F 23% 30.15 in - Variable 2.3 mph - N/A   Clear
5:50 PM 64.4 °F - 28.4 °F 26% 30.15 in - NE 3.5 mph - N/A   Clear
6:50 PM 59.0 °F - 30.2 °F 34% 30.15 in - ESE 10.4 mph - N/A   Clear
7:50 PM 55.4 °F - 28.4 °F 36% 30.18 in - Variable 1.2 mph - N/A   Clear
8:50 PM 53.6 °F - 28.4 °F 38% 30.18 in - NE 6.9 mph - N/A   Clear
9:00 PM 53 °F - 29 °F 27%  in 6 mi NE 6.9 mph - -  
9:50 PM 51.8 °F - 35.6 °F 54% 30.18 in - Calm Calm - N/A   Clear
10:50 PM 48.2 °F - 32.0 °F 54% 30.18 in - Calm Calm - N/A   Clear
11:50 PM 41.0 °F - 28.4 °F 61% 30.18 in - Calm Calm - N/A   Clear